Location: Poprad
(49.0500°N, 20.3000°E)
Time: 18:01:00
(UTC+02:00)

RS-44 - Pass Details

Date: 27 April 2024
Orbit: 1174 x 1511 km, 82.5° (Epoch: 20 May)

Event Time Altitude Azimuth Distance (km) Brightness Sun altitude
Rises 20:23:50 0° 201° (SSW) 4,611 ? -5.9°
Reaches altitude 10° 20:26:50 10° 204° (SSW) 3,611 ? -6.3°
Maximum altitude 20:35:25 62° 284° (WNW) 1,573 ? -7.5°
Drops below altitude 10° 20:43:32 10° 5° (N) 3,406 ? -8.6°
Sets 20:46:17 0° 9° (N) 4,336 ? -9.0°
